When you browse on this site, cookies collect data to enhance your experience and personalize the content and advertising you see.
Visit our Privacy Policy to learn more. By continuing to use the site, you agree to this use of cookies and data.
  • Em Portugal
  • Lista de países
  • Para 7 dias
  • Temperatura da água
  • Mapa do tempo
  • Widgets de tempo
  • user-avatar
    Iniciar Sessão

    Previsão horária em Koryzhi

    Hoje, 17 Setembro, Terça-feira

    Tempo Temperatura Precipitação Vento Pressão Humidade
    00:00 +8°C° 0 mm 3 m/s 740 mmHg 94%
    01:00 +8°C° 0 mm 3 m/s 740 mmHg 95%
    02:00 +7°C° 0 mm 4 m/s 740 mmHg 94%
    03:00 +8°C° 0.1 mm 3 m/s 740 mmHg 94%
    04:00 +8°C° 0.1 mm 3 m/s 741 mmHg 94%
    05:00 +8°C° 0.1 mm 3 m/s 741 mmHg 94%
    06:00 +8°C° 0.1 mm 3 m/s 741 mmHg 93%
    07:00 +8°C° 0.1 mm 3 m/s 741 mmHg 92%
    08:00 +9°C° 0.1 mm 3 m/s 741 mmHg 90%
    09:00 +10°C° 0.3 mm 3 m/s 741 mmHg 87%
    10:00 +10°C° 0.3 mm 3 m/s 741 mmHg 83%
    11:00 +11°C° 0.3 mm 4 m/s 741 mmHg 80%
    12:00 +12°C° 0.3 mm 3 m/s 741 mmHg 76%
    13:00 +12°C° 0.3 mm 3 m/s 741 mmHg 72%
    14:00 +13°C° 0.3 mm 3 m/s 741 mmHg 68%
    15:00 +12°C° 0.4 mm 3 m/s 741 mmHg 75%
    16:00 +12°C° 0.4 mm 2 m/s 740 mmHg 81%
    17:00 +10°C° 0.4 mm 2 m/s 740 mmHg 88%
    18:00 +9°C° 0.1 mm 2 m/s 740 mmHg 90%
    19:00 +8°C° 0.1 mm 2 m/s 740 mmHg 93%
    20:00 +8°C° 0.1 mm 1 m/s 740 mmHg 95%
    21:00 +7°C° 0 mm 1 m/s 740 mmHg 95%
    22:00 +7°C° 0 mm 1 m/s 740 mmHg 96%
    23:00 +6°C° 0 mm 1 m/s 739 mmHg 96%

    Amanhã, 18 Setembro, Quarta-feira

    Tempo Temperatura Precipitação Vento Pressão Humidade
    00:00 +6°C° 0 mm 1 m/s 740 mmHg 96%
    01:00 +5°C° 0 mm 0 m/s 740 mmHg 96%
    02:00 +4°C° 0 mm 0 m/s 740 mmHg 96%
    03:00 +4°C° 0 mm 0 m/s 740 mmHg 96%
    04:00 +5°C° 0 mm 1 m/s 740 mmHg 97%
    05:00 +5°C° 0 mm 1 m/s 740 mmHg 97%
    06:00 +6°C° 0 mm 1 m/s 740 mmHg 95%
    07:00 +7°C° 0 mm 1 m/s 741 mmHg 93%
    08:00 +6°C° 0 mm 2 m/s 741 mmHg 91%
    09:00 +8°C° 0 mm 2 m/s 741 mmHg 86%
    10:00 +9°C° 0 mm 2 m/s 742 mmHg 80%
    11:00 +10°C° 0 mm 2 m/s 742 mmHg 75%
    12:00 +12°C° 0.2 mm 2 m/s 743 mmHg 75%
    13:00 +11°C° 0.2 mm 3 m/s 743 mmHg 74%
    14:00 +12°C° 0.2 mm 3 m/s 743 mmHg 74%
    15:00 +11°C° 0.5 mm 3 m/s 744 mmHg 79%
    16:00 +10°C° 0.5 mm 3 m/s 745 mmHg 83%
    17:00 +9°C° 0.5 mm 3 m/s 745 mmHg 88%
    18:00 +8°C° 0.1 mm 3 m/s 746 mmHg 90%
    19:00 +7°C° 0.1 mm 3 m/s 746 mmHg 93%
    20:00 +5°C° 0.1 mm 3 m/s 747 mmHg 95%
    21:00 +6°C° 0 mm 2 m/s 747 mmHg 95%
    22:00 +6°C° 0 mm 2 m/s 748 mmHg 95%
    23:00 +5°C° 0 mm 2 m/s 749 mmHg 95%

    Depois de amanhã, 19 Setembro, Quinta-feira

    Tempo Temperatura Precipitação Vento Pressão Humidade
    00:00 +5°C° 0 mm 2 m/s 749 mmHg 95%
    01:00 +4°C° 0 mm 2 m/s 749 mmHg 94%
    02:00 +5°C° 0 mm 1 m/s 750 mmHg 94%
    03:00 +4°C° 0 mm 1 m/s 750 mmHg 93%
    04:00 +4°C° 0 mm 1 m/s 750 mmHg 93%
    05:00 +4°C° 0 mm 1 m/s 751 mmHg 93%
    06:00 +5°C° 0 mm 1 m/s 751 mmHg 90%
    07:00 +4°C° 0 mm 2 m/s 752 mmHg 87%
    08:00 +5°C° 0 mm 2 m/s 752 mmHg 85%
    09:00 +6°C° 0 mm 2 m/s 752 mmHg 78%
    10:00 +7°C° 0 mm 2 m/s 752 mmHg 72%
    11:00 +8°C° 0 mm 2 m/s 753 mmHg 65%
    12:00 +9°C° 0 mm 2 m/s 753 mmHg 64%
    13:00 +9°C° 0 mm 2 m/s 753 mmHg 63%
    14:00 +9°C° 0 mm 2 m/s 753 mmHg 61%
    15:00 +9°C° 0 mm 2 m/s 753 mmHg 65%
    16:00 +9°C° 0 mm 2 m/s 753 mmHg 68%
    17:00 +9°C° 0 mm 1 m/s 753 mmHg 71%
    18:00 +8°C° 0 mm 1 m/s 753 mmHg 76%
    19:00 +6°C° 0 mm 1 m/s 753 mmHg 81%
    20:00 +3°C° 0 mm 0 m/s 753 mmHg 86%
    21:00 +3°C° 0 mm 0 m/s 753 mmHg 87%
    22:00 +3°C° 0 mm 0 m/s 754 mmHg 88%
    23:00 +2°C° 0 mm 0 m/s 754 mmHg 90%

    20 Setembro, Sexta-feira

    Tempo Temperatura Precipitação Vento Pressão Humidade
    00:00 +3°C° 0 mm 0 m/s 754 mmHg 89%
    01:00 +3°C° 0 mm 0 m/s 754 mmHg 89%
    02:00 +4°C° 0 mm 1 m/s 754 mmHg 88%
    03:00 +4°C° 0 mm 1 m/s 754 mmHg 90%
    04:00 +4°C° 0 mm 1 m/s 754 mmHg 92%
    05:00 +4°C° 0 mm 1 m/s 754 mmHg 94%
    06:00 +3°C° 0 mm 2 m/s 754 mmHg 90%
    07:00 +4°C° 0 mm 2 m/s 754 mmHg 86%
    08:00 +5°C° 0 mm 2 m/s 755 mmHg 82%
    09:00 +6°C° 0 mm 2 m/s 755 mmHg 76%
    10:00 +7°C° 0 mm 2 m/s 755 mmHg 70%
    11:00 +8°C° 0 mm 3 m/s 756 mmHg 63%
    12:00 +9°C° 0.1 mm 3 m/s 756 mmHg 61%
    13:00 +9°C° 0.1 mm 3 m/s 756 mmHg 59%
    14:00 +9°C° 0.1 mm 3 m/s 756 mmHg 57%
    15:00 +9°C° 0.1 mm 3 m/s 756 mmHg 63%
    16:00 +8°C° 0.1 mm 2 m/s 756 mmHg 68%
    17:00 +7°C° 0.1 mm 2 m/s 756 mmHg 74%
    18:00 +6°C° 0 mm 2 m/s 757 mmHg 78%
    19:00 +4°C° 0 mm 2 m/s 757 mmHg 81%
    20:00 +3°C° 0 mm 2 m/s 758 mmHg 85%
    21:00 +2°C° 0 mm 2 m/s 758 mmHg 85%
    22:00 +3°C° 0 mm 1 m/s 758 mmHg 85%
    23:00 +2°C° 0 mm 1 m/s 758 mmHg 84%

    21 Setembro, Sábado

    Tempo Temperatura Precipitação Vento Pressão Humidade
    00:00 +2°C° 0 mm 1 m/s 759 mmHg 85%
    01:00 +1°C° 0 mm 1 m/s 759 mmHg 85%
    02:00 +1°C° 0 mm 1 m/s 759 mmHg 85%
    03:00 +1°C° 0 mm 1 m/s 759 mmHg 86%
    04:00 +1°C° 0 mm 1 m/s 759 mmHg 86%
    05:00 +1°C° 0 mm 1 m/s 759 mmHg 87%
    06:00 +2°C° 0 mm 1 m/s 760 mmHg 83%
    07:00 +3°C° 0 mm 1 m/s 760 mmHg 79%
    08:00 +5°C° 0 mm 1 m/s 760 mmHg 74%
    09:00 +5°C° 0 mm 2 m/s 760 mmHg 71%
    10:00 +7°C° 0 mm 2 m/s 760 mmHg 67%
    11:00 +8°C° 0 mm 2 m/s 760 mmHg 63%
    12:00 +8°C° 0 mm 3 m/s 760 mmHg 65%
    13:00 +8°C° 0 mm 3 m/s 759 mmHg 66%
    14:00 +9°C° 0 mm 3 m/s 759 mmHg 68%
    15:00 +8°C° 0 mm 3 m/s 759 mmHg 71%
    16:00 +8°C° 0 mm 3 m/s 759 mmHg 75%
    17:00 +7°C° 0 mm 2 m/s 759 mmHg 79%
    18:00 +7°C° 0 mm 2 m/s 759 mmHg 82%
    19:00 +6°C° 0 mm 2 m/s 759 mmHg 86%
    20:00 +5°C° 0 mm 2 m/s 758 mmHg 90%
    21:00 +6°C° 0.1 mm 2 m/s 758 mmHg 92%
    22:00 +6°C° 0.1 mm 2 m/s 758 mmHg 93%
    23:00 +5°C° 0.1 mm 3 m/s 758 mmHg 95%

    22 Setembro, Domingo

    Tempo Temperatura Precipitação Vento Pressão Humidade
    00:00 +7°C° 0.3 mm 3 m/s 758 mmHg 96%
    01:00 +7°C° 0.3 mm 3 m/s 757 mmHg 97%
    02:00 +8°C° 0.3 mm 3 m/s 757 mmHg 98%
    03:00 +8°C° 0.1 mm 3 m/s 757 mmHg 97%
    04:00 +9°C° 0.1 mm 3 m/s 757 mmHg 96%
    05:00 +9°C° 0.1 mm 3 m/s 757 mmHg 95%
    06:00 +10°C° 0 mm 3 m/s 757 mmHg 94%
    07:00 +10°C° 0 mm 3 m/s 757 mmHg 93%
    08:00 +11°C° 0 mm 3 m/s 757 mmHg 92%
    09:00 +12°C° 0 mm 4 m/s 757 mmHg 87%
    10:00 +14°C° 0 mm 4 m/s 757 mmHg 82%
    11:00 +15°C° 0 mm 4 m/s 757 mmHg 77%
    12:00 +17°C° 0 mm 4 m/s 757 mmHg 72%
    13:00 +18°C° 0 mm 4 m/s 757 mmHg 68%
    14:00 +19°C° 0 mm 4 m/s 757 mmHg 64%
    15:00 +18°C° 0 mm 4 m/s 757 mmHg 68%
    16:00 +18°C° 0 mm 3 m/s 757 mmHg 73%
    17:00 +17°C° 0 mm 2 m/s 757 mmHg 78%
    18:00 +16°C° 0 mm 2 m/s 757 mmHg 83%
    19:00 +13°C° 0 mm 3 m/s 757 mmHg 89%
    20:00 +12°C° 0 mm 3 m/s 757 mmHg 94%
    21:00 +12°C° 0 mm 3 m/s 757 mmHg 95%
    22:00 +11°C° 0 mm 3 m/s 757 mmHg 96%
    23:00 +11°C° 0 mm 3 m/s 758 mmHg 97%
    Mostrar mais